Time,TemperatureF,DewpointF,PressureIn,WindDirection,WindDirectionDegrees,WindSpeedMPH,WindSpeedGustMPH,Humidity,HourlyPrecipIn,Conditions,Clouds,dailyrainin,SoftwareType,DateUTC
2013-01-27 00:00:00,46.4,42.1,29.88,South,184,11.5,11.5,85,0.00,OVC,,0.04,WeatherDisplay:10.37,2013-01-27 08:00:00,
2013-01-27 00:05:00,46.0,41.7,29.88,South,185,9.2,9.2,85,0.00,OVC,,0.00,WeatherDisplay:10.37,2013-01-27 08:05:00,
2013-01-27 00:10:00,45.7,41.8,29.87,South,173,10.4,10.4,86,0.00,OVC,,0.00,WeatherDisplay:10.37,2013-01-27 08:10:00,
2013-01-27 00:16:00,45.4,41.8,29.88,South,184,9.2,9.2,87,0.00,OVC,,0.00,WeatherDisplay:10.37,2013-01-27 08:16:00,
2013-01-27 00:21:00,45.4,41.8,29.87,SSW,192,7.0,7.0,87,0.00,OVC,,0.00,WeatherDisplay:10.37,2013-01-27 08:21:00,
2013-01-27 00:26:00,45.2,41.3,29.87,South,178,8.1,8.1,86,0.00,OVC,,0.00,WeatherDisplay:10.37,2013-01-27 08:26:00,
2013-01-27 00:31:00,45.0,41.4,29.87,South,172,5.8,5.8,87,0.00,OVC,,0.00,WeatherDisplay:10.37,2013-01-27 08:31:00,
2013-01-27 00:36:00,45.0,41.4,29.87,South,179,7.0,7.0,87,0.00,CLR,,0.00,WeatherDisplay:10.37,2013-01-27 08:36:00,
2013-01-27 00:41:00,45.0,41.4,29.87,South,188,7.0,8.0,87,0.00,CLR,,0.00,WeatherDisplay:10.37,2013-01-27 08:41:00,
2013-01-27 00:47:00,44.9,41.3,29.87,South,190,5.8,5.8,87,0.00,OVC,,0.00,WeatherDisplay:10.37,2013-01-27 08:47:00,
2013-01-27 00:52:00,44.9,41.3,29.87,South,190,4.6,4.6,87,0.00,OVC,,0.00,WeatherDisplay:10.37,2013-01-27 08:52:00,
2013-01-27 00:57:00,45.0,41.4,29.87,South,190,3.5,3.5,87,0.00,OVC,,0.00,WeatherDisplay:10.37,2013-01-27 08:57:00,
2013-01-27 01:02:00,44.9,41.0,29.87,South,190,4.0,4.0,86,0.00,OVC,,0.00,WeatherDisplay:10.37,2013-01-27 09:02:00,
2013-01-27 01:08:00,44.3,40.7,29.88,South,172,5.8,5.8,87,0.00,OVC,,0.00,WeatherDisplay:10.37,2013-01-27 09:08:00,
2013-01-27 01:13:00,44.0,40.7,29.88,South,190,8.0,8.0,88,0.00,CLR,,0.00,WeatherDisplay:10.37,2013-01-27 09:13:00,
2013-01-27 01:18:00,44.7,41.7,29.88,SSW,209,9.2,9.2,89,0.00,OVC,,0.00,WeatherDisplay:10.37,2013-01-27 09:18:00,
2013-01-27 01:23:00,45.8,42.2,29.88,SSW,192,15.0,15.0,87,0.00,OVC,,0.00,WeatherDisplay:10.37,2013-01-27 09:23:00,
2013-01-27 01:28:00,46.0,42.0,29.87,South,186,12.0,12.0,86,0.00,OVC,,0.00,WeatherDisplay:10.37,2013-01-27 09:28:00,
2013-01-27 01:33:00,45.7,41.8,29.87,South,190,12.7,12.7,86,0.00,OVC,,0.00,WeatherDisplay:10.37,2013-01-27 09:33:00,
2013-01-27 01:38:00,45.6,41.7,29.87,SSW,197,16.1,16.1,86,0.00,OVC,,0.00,WeatherDisplay:10.37,2013-01-27 09:38:00,
2013-01-27 01:43:00,45.7,41.8,29.87,SSW,196,17.0,17.0,86,0.00,OVC,,0.00,WeatherDisplay:10.37,2013-01-27 09:43:00,
2013-01-27 01:48:00,46.1,41.8,29.87,SSW,193,19.6,19.6,85,0.00,OVC,,0.00,WeatherDisplay:10.37,2013-01-27 09:48:00,
2013-01-27 01:54:00,46.5,41.9,29.87,SSW,200,17.0,17.0,84,0.00,OVC,,0.00,WeatherDisplay:10.37,2013-01-27 09:54:00,
2013-01-27 01:59:00,46.1,41.8,29.87,SW,215,15.0,15.0,85,0.00,CLR,,0.00,WeatherDisplay:10.37,2013-01-27 09:59:00,
2013-01-27 02:04:00,45.7,41.4,29.87,SSW,202,15.0,15.0,85,0.00,OVC,,0.00,WeatherDisplay:10.37,2013-01-27 10:04:00,
2013-01-27 02:09:00,46.1,41.8,29.87,SSW,196,15.0,15.0,85,0.00,OVC,,0.00,WeatherDisplay:10.37,2013-01-27 10:09:00,
2013-01-27 02:14:00,45.6,41.0,29.88,SW,224,12.0,12.0,84,0.00,OVC,,0.00,WeatherDisplay:10.37,2013-01-27 10:14:00,
2013-01-27 02:20:00,45.9,41.6,29.88,SW,219,16.1,16.1,85,0.00,OVC,,0.00,WeatherDisplay:10.37,2013-01-27 10:20:00,
2013-01-27 02:25:00,46.2,41.3,29.88,SW,218,15.0,15.0,83,0.00,OVC,,0.00,WeatherDisplay:10.37,2013-01-27 10:25:00,
2013-01-27 02:30:00,45.9,41.3,29.88,SSW,209,13.8,13.8,84,0.00,OVC,,0.00,WeatherDisplay:10.37,2013-01-27 10:30:00,
2013-01-27 02:35:00,45.7,41.1,29.88,SSW,207,13.0,13.0,84,0.00,OVC,,0.00,WeatherDisplay:10.37,2013-01-27 10:35:00,
2013-01-27 02:40:00,45.6,41.0,29.87,SSW,194,11.5,11.5,84,0.00,OVC,,0.00,WeatherDisplay:10.37,2013-01-27 10:40:00,
2013-01-27 02:45:00,44.5,40.3,29.88,WSW,238,9.2,9.2,85,0.00,OVC,,0.00,WeatherDisplay:10.37,2013-01-27 10:45:00,
2013-01-27 02:50:00,44.0,40.1,29.88,SW,215,8.1,8.1,86,0.00,OVC,,0.00,WeatherDisplay:10.37,2013-01-27 10:50:00,
2013-01-27 02:56:00,43.4,39.8,29.87,SSW,213,10.4,10.4,87,0.00,OVC,,0.00,WeatherDisplay:10.37,2013-01-27 10:56:00,
2013-01-27 03:01:00,43.0,39.7,29.87,SSW,209,10.4,10.4,88,0.00,OVC,,0.00,WeatherDisplay:10.37,2013-01-27 11:01:00,
2013-01-27 03:06:00,43.3,40.3,29.88,SSW,196,10.4,10.4,89,0.00,OVC,,0.00,WeatherDisplay:10.37,2013-01-27 11:06:00,
2013-01-27 03:11:00,43.5,40.5,29.88,South,187,14.0,14.0,89,0.00,OVC,,0.00,WeatherDisplay:10.37,2013-01-27 11:11:00,
2013-01-27 03:16:00,45.4,42.3,29.87,SSW,192,19.6,19.6,89,0.00,CLR,,0.00,WeatherDisplay:10.37,2013-01-27 11:16:00,
2013-01-27 03:21:00,46.2,42.8,29.87,SSW,200,25.3,25.3,88,0.00,OVC,,0.00,WeatherDisplay:10.37,2013-01-27 11:21:00,
2013-01-27 03:26:00,46.0,42.7,29.87,SSW,198,18.0,22.0,88,0.00,CLR,,0.00,WeatherDisplay:10.37,2013-01-27 11:26:00,
2013-01-27 03:31:00,45.5,42.5,29.87,SSW,205,18.0,23.0,89,0.00,CLR,,0.00,WeatherDisplay:10.37,2013-01-27 11:31:00,
2013-01-27 03:36:00,44.9,42.4,29.88,SW,215,20.0,26.0,91,0.00,CLR,,0.00,WeatherDisplay:10.37,2013-01-27 11:36:00,
2013-01-27 03:41:00,44.3,42.2,29.88,SW,217,18.0,21.0,92,0.00,CLR,,0.00,WeatherDisplay:10.37,2013-01-27 11:41:00,
2013-01-27 03:47:00,44.1,41.9,29.88,SSW,200,20.7,20.7,92,0.00,OVC,,0.00,WeatherDisplay:10.37,2013-01-27 11:47:00,
2013-01-27 03:52:00,44.0,41.8,29.88,SSW,192,19.6,19.6,92,0.00,OVC,,0.00,WeatherDisplay:10.37,2013-01-27 11:52:00,
2013-01-27 03:57:00,44.0,41.5,29.88,SSW,208,19.6,19.6,91,0.00,OVC,,0.00,WeatherDisplay:10.37,2013-01-27 11:57:00,
2013-01-27 04:02:00,44.1,41.6,29.88,SW,232,18.4,18.4,91,0.00,OVC,,0.00,WeatherDisplay:10.37,2013-01-27 12:02:00,
2013-01-27 04:07:00,44.2,41.2,29.88,SSW,204,18.4,18.4,89,0.00,OVC,,0.00,WeatherDisplay:10.37,2013-01-27 12:07:00,
2013-01-27 04:12:00,43.8,40.8,29.88,SSW,208,17.3,17.3,89,0.00,OVC,,0.00,WeatherDisplay:10.37,2013-01-27 12:12:00,
2013-01-27 04:17:00,43.7,40.7,29.88,SSW,212,15.0,15.0,89,0.00,OVC,,0.00,WeatherDisplay:10.37,2013-01-27 12:17:00,
2013-01-27 04:22:00,43.5,40.2,29.88,SSW,209,17.3,17.3,88,0.00,OVC,,0.00,WeatherDisplay:10.37,2013-01-27 12:22:00,
2013-01-27 04:27:00,43.3,40.3,29.88,SSW,199,16.1,16.1,89,0.00,OVC,,0.00,WeatherDisplay:10.37,2013-01-27 12:27:00,
2013-01-27 04:32:00,42.9,39.9,29.88,SSW,192,11.5,11.5,89,0.00,OVC,,0.00,WeatherDisplay:10.37,2013-01-27 12:32:00,
2013-01-27 04:38:00,42.5,39.5,29.88,SSW,208,13.0,13.0,89,0.00,OVC,,0.00,WeatherDisplay:10.37,2013-01-27 12:38:00,
2013-01-27 04:43:00,42.8,39.5,29.88,SSW,198,15.0,15.0,88,0.00,OVC,,0.00,WeatherDisplay:10.37,2013-01-27 12:43:00,
2013-01-27 04:48:00,43.0,39.4,29.88,SSW,207,16.1,16.1,87,0.00,OVC,,0.00,WeatherDisplay:10.37,2013-01-27 12:48:00,
2013-01-27 04:53:00,42.8,38.9,29.88,SSW,201,12.7,12.7,86,0.00,OVC,,0.00,WeatherDisplay:10.37,2013-01-27 12:53:00,
2013-01-27 04:58:00,42.4,38.5,29.88,SSW,200,12.0,12.0,86,0.00,OVC,,0.00,WeatherDisplay:10.37,2013-01-27 12:58:00,
2013-01-27 05:03:00,41.9,38.0,29.88,SSW,198,12.0,12.0,86,0.00,OVC,,0.00,WeatherDisplay:10.37,2013-01-27 13:03:00,
2013-01-27 05:08:00,41.7,37.8,29.88,SSW,202,17.3,17.3,86,0.00,OVC,,0.00,WeatherDisplay:10.37,2013-01-27 13:08:00,
2013-01-27 05:13:00,41.7,37.8,29.88,SSW,205,19.6,19.6,86,0.00,OVC,,0.00,WeatherDisplay:10.37,2013-01-27 13:13:00,
2013-01-27 05:18:00,42.0,37.5,29.88,SSW,207,16.1,16.1,84,0.00,OVC,,0.00,WeatherDisplay:10.37,2013-01-27 13:18:00,
2013-01-27 05:23:00,42.3,37.5,29.88,SSW,194,17.3,17.3,83,0.00,OVC,,0.00,WeatherDisplay:10.37,2013-01-27 13:23:00,
2013-01-27 05:29:00,41.9,37.1,29.88,South,186,15.0,15.0,83,0.00,OVC,,0.00,WeatherDisplay:10.37,2013-01-27 13:29:00,
2013-01-27 05:34:00,41.4,37.2,29.88,SSW,201,14.0,14.0,85,0.00,OVC,,0.00,WeatherDisplay:10.37,2013-01-27 13:34:00,
2013-01-27 05:39:00,41.6,37.1,29.88,SSW,197,15.0,15.0,84,0.00,OVC,,0.00,WeatherDisplay:10.37,2013-01-27 13:39:00,
2013-01-27 05:44:00,41.5,37.3,29.89,South,184,15.0,15.0,85,0.00,OVC,,0.00,WeatherDisplay:10.37,2013-01-27 13:44:00,
2013-01-27 05:49:00,41.5,37.3,29.89,SSW,196,17.3,17.3,85,0.00,OVC,,0.00,WeatherDisplay:10.37,2013-01-27 13:49:00,
2013-01-27 05:54:00,41.6,37.1,29.89,South,189,16.0,16.0,84,0.00,OVC,,0.00,WeatherDisplay:10.37,2013-01-27 13:54:00,
2013-01-27 05:59:00,41.5,37.0,29.89,South,180,13.8,13.8,84,0.00,OVC,,0.00,WeatherDisplay:10.37,2013-01-27 13:59:00,
2013-01-27 06:05:00,41.5,37.0,29.90,SSW,201,15.0,15.0,84,0.00,OVC,,0.00,WeatherDisplay:10.37,2013-01-27 14:05:00,
2013-01-27 06:10:00,42.0,37.2,29.90,SSW,200,16.0,16.0,83,0.00,OVC,,0.00,WeatherDisplay:10.37,2013-01-27 14:10:00,
2013-01-27 06:15:00,42.1,37.0,29.90,SW,220,15.0,15.0,82,0.00,OVC,,0.00,WeatherDisplay:10.37,2013-01-27 14:15:00,
2013-01-27 06:20:00,42.6,36.9,29.90,SSW,202,16.1,16.1,80,0.00,OVC,,0.00,WeatherDisplay:10.37,2013-01-27 14:20:00,
2013-01-27 06:25:00,43.4,36.7,29.90,SSW,206,25.3,25.3,77,0.00,OVC,,0.00,WeatherDisplay:10.37,2013-01-27 14:25:00,
2013-01-27 06:31:00,43.1,36.7,29.90,SSW,196,18.4,18.4,78,0.00,OVC,,0.00,WeatherDisplay:10.37,2013-01-27 14:31:00,
2013-01-27 06:36:00,42.8,36.4,29.90,SSW,194,16.1,16.1,78,0.00,OVC,,0.00,WeatherDisplay:10.37,2013-01-27 14:36:00,
2013-01-27 06:41:00,42.7,36.6,29.90,SSW,194,16.1,16.1,79,0.00,OVC,,0.00,WeatherDisplay:10.37,2013-01-27 14:41:00,
2013-01-27 06:46:00,42.6,36.5,29.91,South,188,16.1,16.1,79,0.00,OVC,,0.00,WeatherDisplay:10.37,2013-01-27 14:46:00,
2013-01-27 06:51:00,42.3,36.6,29.91,SSW,192,15.0,15.0,80,0.00,OVC,,0.00,WeatherDisplay:10.37,2013-01-27 14:51:00,
2013-01-27 06:56:00,41.9,36.5,29.91,South,191,15.0,15.0,81,0.00,OVC,,0.00,WeatherDisplay:10.37,2013-01-27 14:56:00,
2013-01-27 07:01:00,42.1,36.4,29.91,South,191,18.4,18.4,80,0.00,OVC,,0.00,WeatherDisplay:10.37,2013-01-27 15:01:00,
2013-01-27 07:06:00,42.1,36.4,29.91,SSW,200,16.0,25.0,80,0.00,CLR,,0.00,WeatherDisplay:10.37,2013-01-27 15:06:00,
2013-01-27 07:11:00,42.1,36.1,29.91,SSW,201,17.3,17.3,79,0.00,OVC,,0.00,WeatherDisplay:10.37,2013-01-27 15:11:00,
2013-01-27 07:16:00,41.9,36.2,29.92,SSW,197,17.3,17.3,80,0.00,OVC,,0.00,WeatherDisplay:10.37,2013-01-27 15:16:00,
2013-01-27 07:21:00,41.8,36.1,29.91,SSW,194,17.3,17.3,80,0.00,OVC,,0.00,WeatherDisplay:10.37,2013-01-27 15:21:00,
2013-01-27 07:26:00,41.6,35.9,29.91,South,183,15.0,15.0,80,0.00,OVC,,0.00,WeatherDisplay:10.37,2013-01-27 15:26:00,
2013-01-27 07:31:00,41.5,36.1,29.91,SSW,203,17.3,17.3,81,0.00,OVC,,0.00,WeatherDisplay:10.37,2013-01-27 15:31:00,
2013-01-27 07:36:00,41.5,36.1,29.91,SSW,198,16.0,20.0,81,0.00,CLR,,0.00,WeatherDisplay:10.37,2013-01-27 15:36:00,
2013-01-27 07:41:00,41.6,36.2,29.91,SSW,199,17.0,21.0,81,0.00,CLR,,0.00,WeatherDisplay:10.37,2013-01-27 15:41:00,
2013-01-27 07:46:00,41.4,36.0,29.92,SW,219,21.0,21.0,81,0.00,OVC,,0.00,WeatherDisplay:10.37,2013-01-27 15:46:00,
2013-01-27 07:51:00,41.8,35.8,29.91,SW,214,21.9,21.9,79,0.00,OVC,,0.00,WeatherDisplay:10.37,2013-01-27 15:51:00,
2013-01-27 07:57:00,42.1,35.4,29.92,SSW,200,19.6,19.6,77,0.00,OVC,,0.00,WeatherDisplay:10.37,2013-01-27 15:57:00,
2013-01-27 08:02:00,42.2,35.2,29.91,SSW,202,23.0,23.0,76,0.00,OVC,,0.00,WeatherDisplay:10.37,2013-01-27 16:02:00,
2013-01-27 08:07:00,42.1,35.1,29.92,SSW,194,19.6,19.6,76,0.00,OVC,,0.00,WeatherDisplay:10.37,2013-01-27 16:07:00,
2013-01-27 08:12:00,42.3,35.6,29.92,SSW,208,19.6,19.6,77,0.00,OVC,,0.00,WeatherDisplay:10.37,2013-01-27 16:12:00,
2013-01-27 08:17:00,42.7,35.7,29.92,SSW,205,23.0,23.0,76,0.00,OVC,,0.00,WeatherDisplay:10.37,2013-01-27 16:17:00,
2013-01-27 08:22:00,42.6,35.9,29.92,SSW,199,19.6,19.6,77,0.00,OVC,,0.00,WeatherDisplay:10.37,2013-01-27 16:22:00,
2013-01-27 08:27:00,42.8,36.1,29.92,SSW,204,20.7,20.7,77,0.00,OVC,,0.00,WeatherDisplay:10.37,2013-01-27 16:27:00,
2013-01-27 08:32:00,43.7,36.6,29.92,SSW,198,20.7,20.7,76,0.00,OVC,,0.00,WeatherDisplay:10.37,2013-01-27 16:32:00,
2013-01-27 08:37:00,43.7,35.3,29.92,SW,232,25.3,25.3,72,0.00,OVC,,0.00,WeatherDisplay:10.37,2013-01-27 16:37:00,
2013-01-27 08:42:00,43.7,34.9,29.92,SW,223,26.5,26.5,71,0.00,OVC,,0.00,WeatherDisplay:10.37,2013-01-27 16:42:00,
2013-01-27 08:48:00,43.7,34.6,29.92,SW,214,25.3,25.3,70,0.00,OVC,,0.00,WeatherDisplay:10.37,2013-01-27 16:48:00,
2013-01-27 08:53:00,44.3,34.8,29.92,SW,218,20.7,20.7,69,0.00,OVC,,0.00,WeatherDisplay:10.37,2013-01-27 16:53:00,
2013-01-27 08:58:00,44.5,35.0,29.92,SSW,211,23.0,23.0,69,0.00,OVC,,0.00,WeatherDisplay:10.37,2013-01-27 16:58:00,
2013-01-27 09:04:00,44.8,35.2,29.92,SSW,196,23.0,23.0,69,0.00,OVC,,0.00,WeatherDisplay:10.37,2013-01-27 17:04:00,
2013-01-27 09:09:00,44.4,34.5,29.92,SW,217,20.7,20.7,68,0.00,OVC,,0.00,WeatherDisplay:10.37,2013-01-27 17:09:00,
2013-01-27 09:14:00,44.5,33.8,29.93,SSW,205,24.2,24.2,66,0.00,OVC,,0.00,WeatherDisplay:10.37,2013-01-27 17:14:00,
2013-01-27 09:19:00,44.9,34.2,29.93,SSW,207,23.0,23.0,66,0.00,OVC,,0.00,WeatherDisplay:10.37,2013-01-27 17:19:00,
2013-01-27 09:24:00,45.6,34.5,29.93,SSW,196,25.3,25.3,65,0.00,OVC,,0.00,WeatherDisplay:10.37,2013-01-27 17:24:00,
2013-01-27 09:29:00,46.5,33.4,29.93,SW,216,23.0,23.0,60,0.00,OVC,,0.00,WeatherDisplay:10.37,2013-01-27 17:29:00,
2013-01-27 09:34:00,46.4,33.3,29.93,SW,234,21.9,21.9,60,0.00,OVC,,0.00,WeatherDisplay:10.37,2013-01-27 17:34:00,
2013-01-27 09:39:00,46.9,32.0,29.93,WSW,242,24.2,24.2,56,0.00,OVC,,0.00,WeatherDisplay:10.37,2013-01-27 17:39:00,
2013-01-27 09:45:00,47.1,32.6,29.94,WSW,246,28.0,28.0,57,0.00,OVC,,0.00,WeatherDisplay:10.37,2013-01-27 17:45:00,
2013-01-27 09:50:00,46.8,31.9,29.94,WSW,237,28.0,28.0,56,0.00,OVC,,0.00,WeatherDisplay:10.37,2013-01-27 17:50:00,
2013-01-27 09:55:00,46.5,32.1,29.94,SW,231,23.0,23.0,57,0.00,OVC,,0.00,WeatherDisplay:10.37,2013-01-27 17:55:00,
2013-01-27 10:00:00,46.7,31.8,29.95,WSW,245,26.5,26.5,56,0.00,OVC,,0.00,WeatherDisplay:10.37,2013-01-27 18:00:00,
2013-01-27 10:05:00,47.0,31.2,29.95,WSW,242,26.5,26.5,54,0.00,OVC,,0.00,WeatherDisplay:10.37,2013-01-27 18:05:00,
2013-01-27 10:11:00,47.3,32.4,29.95,WSW,247,25.3,25.3,56,0.00,OVC,,0.00,WeatherDisplay:10.37,2013-01-27 18:11:00,
2013-01-27 10:16:00,47.0,31.2,29.95,SW,227,23.0,23.0,54,0.00,OVC,,0.00,WeatherDisplay:10.37,2013-01-27 18:16:00,
2013-01-27 10:21:00,48.3,30.5,29.95,SW,232,26.5,26.5,50,0.00,OVC,,0.00,WeatherDisplay:10.37,2013-01-27 18:21:00,
2013-01-27 10:26:00,47.9,30.1,29.94,SW,228,25.3,25.3,50,0.00,OVC,,0.00,WeatherDisplay:10.37,2013-01-27 18:26:00,
2013-01-27 10:31:00,48.2,30.4,29.94,WSW,241,23.0,26.0,50,0.00,CLR,,0.00,WeatherDisplay:10.37,2013-01-27 18:31:00,
2013-01-27 10:36:00,48.0,31.2,29.94,WSW,240,25.3,25.3,52,0.00,OVC,,0.00,WeatherDisplay:10.37,2013-01-27 18:36:00,
2013-01-27 10:42:00,49.1,30.7,29.94,SW,226,22.0,22.0,49,0.00,OVC,,0.00,WeatherDisplay:10.37,2013-01-27 18:42:00,
2013-01-27 10:47:00,48.3,31.5,29.94,WSW,253,24.2,24.2,52,0.00,OVC,,0.00,WeatherDisplay:10.37,2013-01-27 18:47:00,
2013-01-27 10:52:00,48.6,29.8,29.94,West,279,20.7,20.7,48,0.00,OVC,,0.00,WeatherDisplay:10.37,2013-01-27 18:52:00,
2013-01-27 10:57:00,49.1,29.2,29.94,SW,230,26.5,26.5,46,0.00,OVC,,0.00,WeatherDisplay:10.37,2013-01-27 18:57:00,
2013-01-27 11:02:00,49.4,31.0,29.94,SW,231,27.0,27.0,49,0.00,OVC,,0.00,WeatherDisplay:10.37,2013-01-27 19:02:00,
2013-01-27 11:08:00,49.5,30.6,29.94,SSW,211,25.3,25.3,48,0.00,OVC,,0.00,WeatherDisplay:10.37,2013-01-27 19:08:00,
2013-01-27 11:13:00,49.8,29.3,29.93,SSW,201,22.0,22.0,45,0.00,OVC,,0.00,WeatherDisplay:10.37,2013-01-27 19:13:00,
2013-01-27 11:18:00,50.2,28.5,29.93,SW,235,28.0,28.0,43,0.00,OVC,,0.00,WeatherDisplay:10.37,2013-01-27 19:18:00,
2013-01-27 11:23:00,49.7,29.2,29.93,WSW,239,26.0,26.0,45,0.00,OVC,,0.00,WeatherDisplay:10.37,2013-01-27 19:23:00,
2013-01-27 11:28:00,49.7,29.7,29.93,SW,214,19.6,19.6,46,0.00,OVC,,0.00,WeatherDisplay:10.37,2013-01-27 19:28:00,
2013-01-27 11:33:00,50.1,29.0,29.92,SW,230,28.8,28.8,44,0.00,OVC,,0.00,WeatherDisplay:10.37,2013-01-27 19:33:00,
2013-01-27 11:38:00,49.9,29.4,29.92,WSW,253,23.0,23.0,45,0.00,OVC,,0.00,WeatherDisplay:10.37,2013-01-27 19:38:00,
2013-01-27 11:43:00,50.3,29.7,29.92,WSW,242,25.3,25.3,45,0.00,OVC,,0.00,WeatherDisplay:10.37,2013-01-27 19:43:00,
2013-01-27 11:48:00,50.5,29.4,29.92,SW,229,30.0,30.0,44,0.00,OVC,,0.00,WeatherDisplay:10.37,2013-01-27 19:48:00,
2013-01-27 11:53:00,50.2,29.7,29.92,SW,233,26.5,26.5,45,0.00,OVC,,0.00,WeatherDisplay:10.37,2013-01-27 19:53:00,
2013-01-27 11:58:00,50.2,30.7,29.91,WSW,249,29.0,29.0,47,0.00,OVC,,0.00,WeatherDisplay:10.37,2013-01-27 19:58:00,
2013-01-27 12:03:00,49.9,29.9,29.92,SW,214,23.0,23.0,46,0.00,OVC,,0.00,WeatherDisplay:10.37,2013-01-27 20:03:00,
2013-01-27 12:08:00,49.2,29.3,29.91,WSW,239,28.8,28.8,46,0.00,OVC,,0.00,WeatherDisplay:10.37,2013-01-27 20:08:00,
2013-01-27 12:13:00,49.6,28.6,29.92,WSW,240,26.5,26.5,44,0.00,OVC,,0.00,WeatherDisplay:10.37,2013-01-27 20:13:00,
2013-01-27 12:18:00,49.6,31.2,29.92,SW,226,31.1,31.1,49,0.00,OVC,,0.00,WeatherDisplay:10.37,2013-01-27 20:18:00,
2013-01-27 12:24:00,49.2,29.8,29.91,SW,215,33.4,33.4,47,0.00,OVC,,0.00,WeatherDisplay:10.37,2013-01-27 20:24:00,
2013-01-27 12:29:00,49.6,28.6,29.91,SW,232,32.2,32.2,44,0.00,OVC,,0.00,WeatherDisplay:10.37,2013-01-27 20:29:00,
2013-01-27 12:34:00,49.5,29.6,29.91,SSW,213,27.6,27.6,46,0.00,OVC,,0.00,WeatherDisplay:10.37,2013-01-27 20:34:00,
2013-01-27 12:39:00,49.3,29.4,29.91,SW,232,31.1,31.1,46,0.00,OVC,,0.00,WeatherDisplay:10.37,2013-01-27 20:39:00,
2013-01-27 12:44:00,49.1,29.2,29.91,SW,221,33.4,33.4,46,0.00,OVC,,0.00,WeatherDisplay:10.37,2013-01-27 20:44:00,
2013-01-27 12:49:00,48.7,28.3,29.90,SW,227,33.4,33.4,45,0.00,OVC,,0.00,WeatherDisplay:10.37,2013-01-27 20:49:00,
2013-01-27 12:55:00,49.1,29.2,29.90,SW,224,39.0,39.0,46,0.00,OVC,,0.00,WeatherDisplay:10.37,2013-01-27 20:55:00,
2013-01-27 13:00:00,48.6,29.3,29.90,SW,232,34.0,34.0,47,0.00,OVC,,0.00,WeatherDisplay:10.37,2013-01-27 21:00:00,
2013-01-27 13:05:00,48.7,29.9,29.90,SW,236,34.0,34.0,48,0.00,OVC,,0.00,WeatherDisplay:10.37,2013-01-27 21:05:00,
2013-01-27 13:10:00,48.6,29.3,29.90,SW,236,39.1,39.1,47,0.00,OVC,,0.00,WeatherDisplay:10.37,2013-01-27 21:10:00,
2013-01-27 13:15:00,48.9,30.1,29.89,SW,235,36.8,36.8,48,0.00,OVC,,0.00,WeatherDisplay:10.37,2013-01-27 21:15:00,
2013-01-27 13:21:00,48.3,30.0,29.89,WSW,242,39.1,39.1,49,0.00,OVC,,0.00,WeatherDisplay:10.37,2013-01-27 21:21:00,
2013-01-27 13:26:00,48.0,29.7,29.89,SW,235,39.1,39.1,49,0.00,OVC,,0.00,WeatherDisplay:10.37,2013-01-27 21:26:00,
2013-01-27 13:31:00,48.5,29.2,29.89,WSW,238,31.1,31.1,47,0.00,OVC,,0.00,WeatherDisplay:10.37,2013-01-27 21:31:00,
2013-01-27 13:36:00,48.9,29.0,29.90,SSW,202,35.7,35.7,46,0.00,OVC,,0.00,WeatherDisplay:10.37,2013-01-27 21:36:00,
2013-01-27 13:41:00,49.1,28.7,29.89,SW,229,36.0,36.0,45,0.00,OVC,,0.00,WeatherDisplay:10.37,2013-01-27 21:41:00,
2013-01-27 13:46:00,48.9,28.5,29.89,SW,215,39.1,39.1,45,0.00,OVC,,0.00,WeatherDisplay:10.37,2013-01-27 21:46:00,
2013-01-27 13:51:00,48.3,29.5,29.90,SW,221,41.4,41.4,48,0.00,OVC,,0.00,WeatherDisplay:10.37,2013-01-27 21:51:00,
2013-01-27 13:56:00,48.3,28.5,29.90,SW,223,37.0,37.0,46,0.00,OVC,,0.00,WeatherDisplay:10.37,2013-01-27 21:56:00,
2013-01-27 14:01:00,48.1,28.3,29.89,SW,226,31.0,40.0,46,0.00,,,0.00,WeatherDisplay:10.37,2013-01-27 22:01:00,
2013-01-27 14:06:00,48.2,29.4,29.89,SW,226,32.0,39.0,48,0.00,,,0.00,WeatherDisplay:10.37,2013-01-27 22:06:00,
2013-01-27 14:11:00,47.9,28.1,29.89,SW,225,31.0,36.0,46,0.00,,,0.00,WeatherDisplay:10.37,2013-01-27 22:11:00,
2013-01-27 14:17:00,47.9,28.1,29.89,WSW,241,33.4,33.4,46,0.00,OVC,,0.00,WeatherDisplay:10.37,2013-01-27 22:17:00,
2013-01-27 14:22:00,48.0,28.7,29.89,SW,234,38.0,38.0,47,0.00,CLR,,0.00,WeatherDisplay:10.37,2013-01-27 22:22:00,
2013-01-27 14:27:00,48.3,27.9,29.90,SW,232,33.4,33.4,45,0.00,OVC,,0.00,WeatherDisplay:10.37,2013-01-27 22:27:00,
2013-01-27 14:32:00,49.0,27.5,29.90,SW,234,29.9,29.9,43,0.00,OVC,,0.00,WeatherDisplay:10.37,2013-01-27 22:32:00,
2013-01-27 14:38:00,48.2,28.4,29.89,SW,227,32.2,32.2,46,0.00,OVC,,0.00,WeatherDisplay:10.37,2013-01-27 22:38:00,
2013-01-27 14:43:00,47.9,28.6,29.90,WSW,247,28.8,28.8,47,0.00,OVC,,0.00,WeatherDisplay:10.37,2013-01-27 22:43:00,
2013-01-27 14:48:00,48.1,26.6,29.89,WSW,243,26.5,26.5,43,0.00,OVC,,0.00,WeatherDisplay:10.37,2013-01-27 22:48:00,
2013-01-27 14:53:00,48.0,28.7,29.90,SW,219,32.2,32.2,47,0.00,OVC,,0.00,WeatherDisplay:10.37,2013-01-27 22:53:00,
2013-01-27 14:58:00,48.2,29.9,29.90,WSW,244,24.2,24.2,49,0.00,OVC,,0.00,WeatherDisplay:10.37,2013-01-27 22:58:00,
2013-01-27 15:03:00,47.8,28.5,29.89,SW,220,30.0,30.0,47,0.00,OVC,,0.00,WeatherDisplay:10.37,2013-01-27 23:03:00,
2013-01-27 15:08:00,47.8,28.5,29.89,SW,234,26.5,26.5,47,0.00,OVC,,0.00,WeatherDisplay:10.37,2013-01-27 23:08:00,
2013-01-27 15:14:00,47.8,28.0,29.89,WSW,242,26.5,26.5,46,0.00,OVC,,0.00,WeatherDisplay:10.37,2013-01-27 23:14:00,
2013-01-27 15:19:00,47.4,27.1,29.89,WSW,250,31.1,31.1,45,0.00,OVC,,0.00,WeatherDisplay:10.37,2013-01-27 23:19:00,
2013-01-27 15:24:00,47.2,26.9,29.89,SW,236,27.6,27.6,45,0.00,OVC,,0.00,WeatherDisplay:10.37,2013-01-27 23:24:00,
2013-01-27 15:30:00,46.8,28.6,29.89,SW,219,26.5,26.5,49,0.00,OVC,,0.00,WeatherDisplay:10.37,2013-01-27 23:30:00,
2013-01-27 15:35:00,46.8,27.1,29.89,SSW,206,27.0,27.0,46,0.00,OVC,,0.00,WeatherDisplay:10.37,2013-01-27 23:35:00,
2013-01-27 15:40:00,46.7,27.0,29.89,SW,227,22.0,22.0,46,0.00,OVC,,0.00,WeatherDisplay:10.37,2013-01-27 23:40:00,
2013-01-27 15:45:00,47.4,26.6,29.89,SSW,212,24.0,24.0,44,0.00,CLR,,0.00,WeatherDisplay:10.37,2013-01-27 23:45:00,
2013-01-27 15:50:00,47.0,26.2,29.89,WSW,246,26.5,26.5,44,0.00,OVC,,0.00,WeatherDisplay:10.37,2013-01-27 23:50:00,
2013-01-27 15:55:00,47.2,26.9,29.89,WSW,257,21.9,21.9,45,0.00,OVC,,0.00,WeatherDisplay:10.37,2013-01-27 23:55:00,
2013-01-27 16:00:00,46.3,27.7,29.89,SW,229,26.5,26.5,48,0.00,OVC,,0.00,WeatherDisplay:10.37,2013-01-28 00:00:00,
2013-01-27 16:05:00,46.1,27.0,29.88,SW,233,28.8,28.8,47,0.00,OVC,,0.00,WeatherDisplay:10.37,2013-01-28 00:05:00,
2013-01-27 16:10:00,46.7,26.5,29.88,West,260,31.1,31.1,45,0.00,CLR,,0.00,WeatherDisplay:10.37,2013-01-28 00:10:00,
2013-01-27 16:15:00,46.4,26.2,29.88,SW,227,28.8,29.2,45,0.00,OVC,,0.00,WeatherDisplay:10.37,2013-01-28 00:15:00,
2013-01-27 16:20:00,46.4,26.7,29.88,WSW,252,26.5,26.5,46,0.00,OVC,,0.00,WeatherDisplay:10.37,2013-01-28 00:20:00,
2013-01-27 16:25:00,46.5,25.7,29.88,WSW,252,27.6,27.6,44,0.00,OVC,,0.00,WeatherDisplay:10.37,2013-01-28 00:25:00,
2013-01-27 16:31:00,45.8,26.7,29.88,WSW,241,23.0,23.0,47,0.00,OVC,,0.00,WeatherDisplay:10.37,2013-01-28 00:31:00,
2013-01-27 16:36:00,45.6,26.5,29.88,West,263,26.5,26.5,47,0.00,OVC,,0.00,WeatherDisplay:10.37,2013-01-28 00:36:00,
2013-01-27 16:41:00,45.7,27.1,29.88,WSW,246,25.3,25.3,48,0.00,OVC,,0.00,WeatherDisplay:10.37,2013-01-28 00:41:00,
2013-01-27 16:46:00,45.0,27.0,29.88,WSW,246,24.2,24.2,49,0.00,OVC,,0.00,WeatherDisplay:10.37,2013-01-28 00:46:00,
2013-01-27 16:51:00,45.0,26.0,29.88,WSW,244,20.0,25.0,47,0.00,CLR,,0.00,WeatherDisplay:10.37,2013-01-28 00:51:00,
2013-01-27 16:56:00,45.0,24.9,29.88,WSW,257,23.0,23.0,45,0.00,OVC,,0.00,WeatherDisplay:10.37,2013-01-28 00:56:00,
2013-01-27 17:02:00,45.0,24.9,29.88,WSW,242,19.6,19.6,45,0.00,OVC,,0.00,WeatherDisplay:10.37,2013-01-28 01:02:00,
2013-01-27 17:07:00,44.5,25.0,29.88,SW,220,15.0,15.0,46,0.00,OVC,,0.00,WeatherDisplay:10.37,2013-01-28 01:07:00,
2013-01-27 17:12:00,44.2,24.7,29.89,SW,234,13.8,13.8,46,0.00,OVC,,0.00,WeatherDisplay:10.37,2013-01-28 01:12:00,
2013-01-27 17:17:00,44.0,24.5,29.89,SW,224,22.0,22.0,46,0.00,OVC,,0.00,WeatherDisplay:10.37,2013-01-28 01:17:00,
2013-01-27 17:22:00,43.8,24.3,29.89,WSW,242,19.6,19.6,46,0.00,OVC,,0.00,WeatherDisplay:10.37,2013-01-28 01:22:00,
2013-01-27 17:27:00,43.7,25.3,29.89,WSW,247,21.0,21.0,48,0.00,OVC,,0.00,WeatherDisplay:10.37,2013-01-28 01:27:00,
2013-01-27 17:32:00,44.2,24.2,29.89,SW,234,19.6,19.6,45,0.00,OVC,,0.00,WeatherDisplay:10.37,2013-01-28 01:32:00,
2013-01-27 17:37:00,44.1,25.1,29.90,WSW,246,21.9,21.9,47,0.00,OVC,,0.00,WeatherDisplay:10.37,2013-01-28 01:37:00,
2013-01-27 17:42:00,43.6,25.2,29.90,WSW,247,21.0,21.0,48,0.00,OVC,,0.00,WeatherDisplay:10.37,2013-01-28 01:42:00,
2013-01-27 17:48:00,43.7,25.3,29.90,SW,234,17.3,17.3,48,0.00,OVC,,0.00,WeatherDisplay:10.37,2013-01-28 01:48:00,
2013-01-27 17:53:00,43.0,24.6,29.91,SW,230,16.1,16.1,48,0.00,OVC,,0.00,WeatherDisplay:10.37,2013-01-28 01:53:00,
2013-01-27 17:58:00,42.5,24.7,29.91,SSW,210,10.4,10.4,49,0.00,OVC,,0.00,WeatherDisplay:10.37,2013-01-28 01:58:00,
2013-01-27 18:03:00,42.4,24.1,29.91,SW,223,11.5,11.5,48,0.00,OVC,,0.00,WeatherDisplay:10.37,2013-01-28 02:03:00,
2013-01-27 18:08:00,42.1,24.8,29.91,SW,221,12.7,12.7,50,0.00,OVC,,0.00,WeatherDisplay:10.37,2013-01-28 02:08:00,
2013-01-27 18:13:00,42.0,25.2,29.91,SW,217,14.0,14.0,51,0.00,OVC,,0.00,WeatherDisplay:10.37,2013-01-28 02:13:00,
2013-01-27 18:19:00,42.3,25.9,29.91,SW,235,20.0,20.0,52,0.00,OVC,,0.00,WeatherDisplay:10.37,2013-01-28 02:19:00,
2013-01-27 18:24:00,42.0,27.0,29.91,SW,218,17.3,17.3,55,0.00,OVC,,0.00,WeatherDisplay:10.37,2013-01-28 02:24:00,
2013-01-27 18:29:00,42.3,25.9,29.91,SW,215,19.6,19.6,52,0.00,OVC,,0.00,WeatherDisplay:10.37,2013-01-28 02:29:00,
2013-01-27 18:35:00,42.5,25.6,29.92,SW,232,22.0,22.0,51,0.00,OVC,,0.00,WeatherDisplay:10.37,2013-01-28 02:35:00,
2013-01-27 18:40:00,42.9,25.5,29.91,WSW,256,20.7,20.7,50,0.00,OVC,,0.00,WeatherDisplay:10.37,2013-01-28 02:40:00,
2013-01-27 18:45:00,42.2,26.7,29.91,SW,234,21.9,21.9,54,0.00,OVC,,0.00,WeatherDisplay:10.37,2013-01-28 02:45:00,
2013-01-27 18:50:00,42.2,26.3,29.91,WSW,240,21.9,21.9,53,0.00,OVC,,0.00,WeatherDisplay:10.37,2013-01-28 02:50:00,
2013-01-27 18:55:00,42.0,27.0,29.91,SW,236,21.0,21.0,55,0.00,OVC,,0.00,WeatherDisplay:10.37,2013-01-28 02:55:00,
2013-01-27 19:00:00,41.9,26.4,29.91,SW,218,21.9,21.9,54,0.00,OVC,,0.00,WeatherDisplay:10.37,2013-01-28 03:00:00,
2013-01-27 19:05:00,41.7,27.1,29.91,WSW,246,26.5,26.5,56,0.00,OVC,,0.00,WeatherDisplay:10.37,2013-01-28 03:05:00,
2013-01-27 19:10:00,41.9,26.0,29.92,WSW,244,25.3,25.3,53,0.00,OVC,,0.00,WeatherDisplay:10.37,2013-01-28 03:10:00,
2013-01-27 19:15:00,42.4,25.5,29.92,SW,222,25.3,25.3,51,0.00,OVC,,0.00,WeatherDisplay:10.37,2013-01-28 03:15:00,
2013-01-27 19:20:00,42.3,25.9,29.92,SW,221,22.0,22.0,52,0.00,OVC,,0.00,WeatherDisplay:10.37,2013-01-28 03:20:00,
2013-01-27 19:25:00,42.0,26.1,29.92,WSW,241,21.9,21.9,53,0.00,OVC,,0.00,WeatherDisplay:10.37,2013-01-28 03:25:00,
2013-01-27 19:31:00,41.6,26.2,29.92,West,261,13.8,13.8,54,0.00,OVC,,0.00,WeatherDisplay:10.37,2013-01-28 03:31:00,
2013-01-27 19:36:00,41.8,26.8,29.92,SW,229,17.3,17.3,55,0.00,OVC,,0.00,WeatherDisplay:10.37,2013-01-28 03:36:00,
2013-01-27 19:41:00,41.7,27.1,29.92,SW,235,13.8,13.8,56,0.00,OVC,,0.00,WeatherDisplay:10.37,2013-01-28 03:41:00,
2013-01-27 19:46:00,41.9,26.4,29.92,WSW,257,17.3,17.3,54,0.00,OVC,,0.00,WeatherDisplay:10.37,2013-01-28 03:46:00,
2013-01-27 19:51:00,41.6,26.6,29.92,WSW,242,16.1,16.1,55,0.00,OVC,,0.00,WeatherDisplay:10.37,2013-01-28 03:51:00,
2013-01-27 19:56:00,41.5,27.8,29.92,SW,233,16.1,16.1,58,0.00,OVC,,0.00,WeatherDisplay:10.37,2013-01-28 03:56:00,
2013-01-27 20:01:00,41.6,27.1,29.92,SW,227,15.0,15.0,56,0.00,OVC,,0.00,WeatherDisplay:10.37,2013-01-28 04:01:00,
2013-01-27 20:06:00,41.2,27.1,29.92,SSW,194,13.0,13.0,57,0.00,OVC,,0.00,WeatherDisplay:10.37,2013-01-28 04:06:00,
2013-01-27 20:12:00,41.5,27.4,29.93,SSW,204,15.0,15.0,57,0.00,OVC,,0.00,WeatherDisplay:10.37,2013-01-28 04:12:00,
2013-01-27 20:17:00,42.4,26.0,29.93,WSW,257,18.4,18.4,52,0.00,OVC,,0.00,WeatherDisplay:10.37,2013-01-28 04:17:00,
2013-01-27 20:22:00,42.8,25.4,29.93,West,267,11.5,11.5,50,0.00,OVC,,0.00,WeatherDisplay:10.37,2013-01-28 04:22:00,
2013-01-27 20:27:00,42.5,25.6,29.94,WSW,246,12.7,12.7,51,0.00,OVC,,0.00,WeatherDisplay:10.37,2013-01-28 04:27:00,
2013-01-27 20:32:00,43.0,26.1,29.94,SW,229,10.0,10.0,51,0.00,OVC,,0.00,WeatherDisplay:10.37,2013-01-28 04:32:00,
2013-01-27 20:37:00,43.1,26.2,29.94,South,178,7.0,7.0,51,0.00,OVC,,0.00,WeatherDisplay:10.37,2013-01-28 04:37:00,
2013-01-27 20:42:00,42.1,25.7,29.95,WSW,256,6.9,6.9,52,0.00,OVC,,0.00,WeatherDisplay:10.37,2013-01-28 04:42:00,
2013-01-27 20:47:00,42.1,25.7,29.94,WNW,288,11.5,11.5,52,0.00,OVC,,0.00,WeatherDisplay:10.37,2013-01-28 04:47:00,
2013-01-27 20:52:00,42.5,25.6,29.94,SSW,198,3.0,3.0,51,0.00,OVC,,0.00,WeatherDisplay:10.37,2013-01-28 04:52:00,
2013-01-27 20:57:00,42.5,25.1,29.95,SW,226,5.8,5.8,50,0.00,OVC,,0.00,WeatherDisplay:10.37,2013-01-28 04:57:00,
2013-01-27 21:02:00,43.2,24.8,29.95,SSW,213,7.0,12.0,48,0.00,CLR,,0.00,WeatherDisplay:10.37,2013-01-28 05:02:00,
2013-01-27 21:03:00,43.2,24.8,29.94,WNW,290,24.2,24.2,48,0.00,OVC,,0.00,WeatherDisplay:10.37,2013-01-28 05:03:00,
2013-01-27 21:04:00,43.2,24.3,29.94,West,269,24.2,24.2,47,0.00,OVC,,0.00,WeatherDisplay:10.37,2013-01-28 05:04:00,
2013-01-27 21:09:00,44.3,24.8,29.94,WNW,282,16.1,16.1,46,0.00,OVC,,0.00,WeatherDisplay:10.37,2013-01-28 05:09:00,
2013-01-27 21:14:00,44.1,24.6,29.94,West,259,18.4,18.4,46,0.00,OVC,,0.00,WeatherDisplay:10.37,2013-01-28 05:14:00,
2013-01-27 21:20:00,44.1,25.1,29.94,WNW,299,18.4,18.4,47,0.00,OVC,,0.00,WeatherDisplay:10.37,2013-01-28 05:20:00,
2013-01-27 21:25:00,43.3,25.4,29.94,WNW,284,12.7,12.7,49,0.00,OVC,,0.00,WeatherDisplay:10.37,2013-01-28 05:25:00,
2013-01-27 21:30:00,43.2,24.8,29.94,WNW,292,24.0,24.0,48,0.00,OVC,,0.00,WeatherDisplay:10.37,2013-01-28 05:30:00,
2013-01-27 21:35:00,43.3,25.4,29.94,West,270,19.6,19.6,49,0.00,OVC,,0.00,WeatherDisplay:10.37,2013-01-28 05:35:00,
2013-01-27 21:40:00,43.1,25.2,29.95,West,262,11.5,11.5,49,0.00,OVC,,0.00,WeatherDisplay:10.37,2013-01-28 05:40:00,
2013-01-27 21:45:00,43.0,24.6,29.95,West,269,17.3,17.3,48,0.00,OVC,,0.00,WeatherDisplay:10.37,2013-01-28 05:45:00,
2013-01-27 21:50:00,43.1,25.2,29.95,West,264,14.0,14.0,49,0.00,OVC,,0.00,WeatherDisplay:10.37,2013-01-28 05:50:00,
2013-01-27 21:55:00,43.2,24.3,29.95,WSW,247,17.0,17.0,47,0.00,OVC,,0.00,WeatherDisplay:10.37,2013-01-28 05:55:00,
2013-01-27 22:00:00,43.1,24.2,29.95,West,263,19.6,19.6,47,0.00,OVC,,0.00,WeatherDisplay:10.37,2013-01-28 06:00:00,
2013-01-27 22:06:00,42.9,24.0,29.95,West,262,12.7,12.7,47,0.00,CLR,,0.00,WeatherDisplay:10.37,2013-01-28 06:06:00,
2013-01-27 22:11:00,43.1,23.7,29.95,WSW,258,13.8,13.8,46,0.00,CLR,,0.00,WeatherDisplay:10.37,2013-01-28 06:11:00,
2013-01-27 22:16:00,43.1,23.7,29.95,WSW,242,19.6,19.6,46,0.00,CLR,,0.00,WeatherDisplay:10.37,2013-01-28 06:16:00,
2013-01-27 22:21:00,43.1,23.7,29.95,West,267,21.9,21.9,46,0.00,CLR,,0.00,WeatherDisplay:10.37,2013-01-28 06:21:00,
2013-01-27 22:26:00,42.9,24.0,29.95,West,268,12.7,12.7,47,0.00,CLR,,0.00,WeatherDisplay:10.37,2013-01-28 06:26:00,
2013-01-27 22:31:00,43.1,24.2,29.95,West,280,20.7,20.7,47,0.00,CLR,,0.00,WeatherDisplay:10.37,2013-01-28 06:31:00,
2013-01-27 22:36:00,43.1,24.7,29.95,West,280,19.6,19.6,48,0.00,CLR,,0.00,WeatherDisplay:10.37,2013-01-28 06:36:00,
2013-01-27 22:41:00,43.2,25.3,29.95,West,278,16.0,27.0,49,0.00,CLR,,0.00,WeatherDisplay:10.37,2013-01-28 06:41:00,
2013-01-27 22:46:00,43.2,25.3,29.96,West,278,16.0,23.0,49,0.00,CLR,,0.00,WeatherDisplay:10.37,2013-01-28 06:46:00,
2013-01-27 22:51:00,43.1,26.2,29.95,West,280,17.0,26.0,51,0.00,CLR,,0.00,WeatherDisplay:10.37,2013-01-28 06:51:00,
2013-01-27 22:56:00,43.4,26.5,29.95,West,277,32.2,32.2,51,0.00,CLR,,0.00,WeatherDisplay:10.37,2013-01-28 06:56:00,
2013-01-27 23:02:00,43.3,26.8,29.96,West,281,22.0,22.0,52,0.00,CLR,,0.00,WeatherDisplay:10.37,2013-01-28 07:02:00,
2013-01-27 23:07:00,43.3,26.4,29.96,WNW,293,32.2,32.2,51,0.00,OVC,,0.00,WeatherDisplay:10.37,2013-01-28 07:07:00,
2013-01-27 23:12:00,43.2,26.3,29.96,West,279,17.3,17.3,51,0.00,OVC,,0.00,WeatherDisplay:10.37,2013-01-28 07:12:00,
2013-01-27 23:17:00,43.0,24.1,29.96,West,279,27.6,27.6,47,0.00,OVC,,0.00,WeatherDisplay:10.37,2013-01-28 07:17:00,
2013-01-27 23:22:00,43.0,24.1,29.96,West,281,18.4,18.4,47,0.00,OVC,,0.00,WeatherDisplay:10.37,2013-01-28 07:22:00,
2013-01-27 23:27:00,43.1,24.2,29.96,WNW,286,25.3,25.3,47,0.00,OVC,,0.00,WeatherDisplay:10.37,2013-01-28 07:27:00,
2013-01-27 23:32:00,43.1,23.7,29.96,WNW,302,16.1,16.1,46,0.00,OVC,,0.00,WeatherDisplay:10.37,2013-01-28 07:32:00,
2013-01-27 23:37:00,43.0,24.6,29.96,WNW,297,26.5,26.5,48,0.00,OVC,,0.00,WeatherDisplay:10.37,2013-01-28 07:37:00,
2013-01-27 23:43:00,43.0,24.6,29.97,West,271,11.5,11.5,48,0.00,OVC,,0.00,WeatherDisplay:10.37,2013-01-28 07:43:00,
2013-01-27 23:48:00,43.0,24.6,29.96,WNW,286,16.1,16.1,48,0.00,OVC,,0.00,WeatherDisplay:10.37,2013-01-28 07:48:00,
2013-01-27 23:53:00,43.0,24.1,29.96,West,280,25.3,25.3,47,0.00,OVC,,0.00,WeatherDisplay:10.37,2013-01-28 07:53:00,
2013-01-27 23:58:00,43.0,24.1,29.96,WNW,285,20.7,20.7,47,0.00,OVC,,0.00,WeatherDisplay:10.37,2013-01-28 07:58:00,